Weather in Sevryukayevo

Russia / Samara Oblast     53°10′34″N   49°29′57″E
temp.,
°C
wind,
m/s
gust,
m/s
humid.,
%
clouds,
%
prec.,
mm/h
press.,
hPa
HPBL,
m
22 may, sun
sun2201:00+3w228274 0.0 100615
04:00+2w118598 0.0 100612
07:00+6sw247637 0.0 1004194
10:00+8nw237062 0.1 1002704
13:00+11nw336889 0.6 1001967
16:00+11nnw326894 1.3 1000811
19:00+10nne357591 0.8 998212
22:00+8ene3786100 1.1 999241
23 may, mon
mon2301:00+7ne3690100 0.3 997255
04:00+6nne3789100 0.9 997275
07:00+6n3592100 1.5 998293
10:00+5n4583100 1.6 999407
13:00+9nw336598 0.0 10001306
16:00+9wnw346397 0.1 10021145
19:00+8nw237081 0.0 1002697
22:00+5wnw117768 0.0 100316
24 may, tue
tue2401:00+4wnw22808 0.0 100417
04:00+2wnw12820 0.0 100514
07:00+5sw23740 0.0 1006250
10:00+9sw46612 0.0 1006839
13:00+12sw575482 0.1 10061975
16:00+14sw574899 0.1 10052050
19:00+12nw246999 0.3 1007101
22:00+7ne227510 0.3 100721
25 may, wed
wed2501:00+6wnw228069 0.0 100828
04:00+4wnw229018 0.0 100822
07:00+5nnw569299 0.1 1009578
10:00+6nnw5578100 0.1 1011904
13:00+9nw346448 0.1 10121177
16:00+9nw446597 0.2 1012876
19:00+9nw246733 0.0 1013769
22:00+5nw34815 0.1 101372
26 may, thu
thu2601:00+4nw33885 0.0 101444
04:00+3wnw23915 0.0 101442
07:00+5w367699 0.0 1014267
10:00+9wsw566399 0.0 10141147
13:00+11wsw5753100 0.1 10132031
16:00+12sw5856100 0.2 10121794
19:00+11ssw4870100 0.1 1011389
22:00+10s41274100 0.1 1009442